Time,TemperatureF,DewpointF,PressureIn,WindDirection,WindDirectionDegrees,WindSpeedMPH,WindSpeedGustMPH,Humidity,HourlyPrecipIn,Conditions,Clouds,dailyrainin,SoftwareType,DateUTC
2013-08-07 00:00:00,66.4,60.0,30.02,SSE,168,5.0,19.0,79,0.00,,,0.00,weatherlink.com 1.10,2013-08-07 04:00:00,
2013-08-07 00:15:00,65.8,60.0,30.02,SSE,168,11.0,15.0,80,0.00,,,0.00,weatherlink.com 1.10,2013-08-07 04:15:00,
2013-08-07 00:30:00,65.5,60.0,30.01,SE,145,6.0,13.0,81,0.00,,,0.00,weatherlink.com 1.10,2013-08-07 04:30:00,
2013-08-07 00:45:00,65.2,59.0,30.01,SSE,149,4.0,12.0,81,0.00,,,0.00,weatherlink.com 1.10,2013-08-07 04:45:00,
2013-08-07 01:00:00,65.5,60.0,30.01,SSE,154,7.0,15.0,81,0.00,,,0.00,weatherlink.com 1.10,2013-08-07 05:00:00,
2013-08-07 01:15:00,65.9,59.0,30.01,South,187,5.0,17.0,79,0.00,,,0.00,weatherlink.com 1.10,2013-08-07 05:15:00,
2013-08-07 01:30:00,65.5,59.0,30.01,South,179,10.0,13.0,80,0.00,,,0.00,weatherlink.com 1.10,2013-08-07 05:30:00,
2013-08-07 01:45:00,65.2,59.0,30.00,SSE,159,6.0,16.0,81,0.00,,,0.00,weatherlink.com 1.10,2013-08-07 05:45:00,
2013-08-07 02:00:00,65.0,59.0,30.01,SSE,162,3.0,11.0,81,0.00,,,0.00,weatherlink.com 1.10,2013-08-07 06:00:00,
2013-08-07 02:15:00,64.7,59.0,30.02,South,189,7.0,9.0,82,0.00,,,0.00,weatherlink.com 1.10,2013-08-07 06:15:00,
2013-08-07 02:30:00,64.9,59.0,30.01,SSE,165,10.0,13.0,82,0.00,,,0.00,weatherlink.com 1.10,2013-08-07 06:30:00,
2013-08-07 02:45:00,64.8,59.0,30.01,South,185,10.0,13.0,82,0.00,,,0.00,weatherlink.com 1.10,2013-08-07 06:45:00,
2013-08-07 03:00:00,65.0,59.0,30.01,SSE,164,5.0,16.0,82,0.00,,,0.00,weatherlink.com 1.10,2013-08-07 07:00:00,
2013-08-07 03:15:00,64.9,59.0,30.01,South,170,9.0,13.0,82,0.00,,,0.00,weatherlink.com 1.10,2013-08-07 07:15:00,
2013-08-07 03:31:00,64.9,59.0,30.00,SSE,163,13.0,18.0,82,0.00,,,0.00,weatherlink.com 1.10,2013-08-07 07:31:00,
2013-08-07 03:46:00,64.7,59.0,30.00,SE,144,6.0,17.0,82,0.00,,,0.00,weatherlink.com 1.10,2013-08-07 07:46:00,
2013-08-07 04:01:00,64.4,59.0,30.00,SSE,156,6.0,14.0,83,0.00,,,0.00,weatherlink.com 1.10,2013-08-07 08:01:00,
2013-08-07 04:16:00,64.3,59.0,30.00,SE,143,9.0,12.0,83,0.00,,,0.00,weatherlink.com 1.10,2013-08-07 08:16:00,
2013-08-07 04:31:00,64.5,59.0,30.00,SSE,154,8.0,16.0,83,0.00,,,0.00,weatherlink.com 1.10,2013-08-07 08:31:00,
2013-08-07 04:46:00,64.9,59.0,30.01,SSE,160,6.0,16.0,82,0.00,,,0.00,weatherlink.com 1.10,2013-08-07 08:46:00,
2013-08-07 05:01:00,64.9,60.0,30.00,SSE,160,6.0,17.0,83,0.00,,,0.00,weatherlink.com 1.10,2013-08-07 09:01:00,
2013-08-07 05:16:00,64.9,60.0,30.00,South,183,8.0,17.0,83,0.00,,,0.00,weatherlink.com 1.10,2013-08-07 09:16:00,
2013-08-07 05:31:00,64.6,59.0,30.00,South,176,6.0,13.0,83,0.00,,,0.00,weatherlink.com 1.10,2013-08-07 09:31:00,
2013-08-07 05:46:00,64.3,59.0,30.00,SE,143,5.0,14.0,84,0.00,,,0.00,weatherlink.com 1.10,2013-08-07 09:46:00,
2013-08-07 06:01:00,64.2,59.0,30.00,South,171,10.0,14.0,84,0.00,,,0.00,weatherlink.com 1.10,2013-08-07 10:01:00,
2013-08-07 06:16:00,64.4,60.0,30.00,South,182,11.0,16.0,84,0.00,,,0.00,weatherlink.com 1.10,2013-08-07 10:16:00,
2013-08-07 06:31:00,64.6,60.0,30.00,South,187,12.0,22.0,84,0.00,,,0.00,weatherlink.com 1.10,2013-08-07 10:31:00,
2013-08-07 06:46:00,64.6,60.0,30.00,SSE,163,8.0,19.0,84,0.00,,,0.00,weatherlink.com 1.10,2013-08-07 10:46:00,
2013-08-07 07:01:00,64.8,60.0,30.00,South,185,10.0,22.0,84,0.00,,,0.00,weatherlink.com 1.10,2013-08-07 11:01:00,
2013-08-07 07:16:00,64.9,60.0,30.00,South,182,13.0,17.0,85,0.00,,,0.00,weatherlink.com 1.10,2013-08-07 11:16:00,
2013-08-07 07:31:00,65.1,60.0,30.00,South,180,10.0,22.0,84,0.00,,,0.00,weatherlink.com 1.10,2013-08-07 11:31:00,
2013-08-07 07:46:00,65.0,60.0,30.01,SSW,197,11.0,20.0,85,0.00,,,0.00,weatherlink.com 1.10,2013-08-07 11:46:00,
2013-08-07 08:01:00,65.4,61.0,30.00,SSW,192,10.0,18.0,85,0.00,,,0.00,weatherlink.com 1.10,2013-08-07 12:01:00,
2013-08-07 08:16:00,66.4,62.0,30.00,SSE,165,15.0,22.0,84,0.00,,,0.00,weatherlink.com 1.10,2013-08-07 12:16:00,
2013-08-07 08:31:00,67.4,62.0,30.00,SSW,206,8.0,20.0,82,0.00,,,0.00,weatherlink.com 1.10,2013-08-07 12:31:00,
2013-08-07 08:46:00,68.3,62.0,30.00,South,177,13.0,18.0,81,0.00,,,0.00,weatherlink.com 1.10,2013-08-07 12:46:00,
2013-08-07 09:01:00,69.0,62.0,29.99,SSE,149,10.0,19.0,79,0.00,,,0.00,weatherlink.com 1.10,2013-08-07 13:01:00,
2013-08-07 09:16:00,69.6,62.0,29.99,South,185,19.0,23.0,78,0.00,,,0.00,weatherlink.com 1.10,2013-08-07 13:16:00,
2013-08-07 09:31:00,70.1,63.0,29.99,South,174,13.0,23.0,78,0.00,,,0.00,weatherlink.com 1.10,2013-08-07 13:31:00,
2013-08-07 09:46:00,70.2,63.0,29.98,SSE,168,18.0,29.0,77,0.00,,,0.00,weatherlink.com 1.10,2013-08-07 13:46:00,
2013-08-07 10:01:00,70.3,63.0,29.98,SSE,166,17.0,24.0,78,0.00,,,0.00,weatherlink.com 1.10,2013-08-07 14:01:00,
2013-08-07 10:16:00,71.0,64.0,29.98,South,187,16.0,22.0,78,0.00,,,0.00,weatherlink.com 1.10,2013-08-07 14:16:00,
2013-08-07 10:31:00,70.9,63.0,29.98,SSE,154,11.0,26.0,77,0.00,,,0.00,weatherlink.com 1.10,2013-08-07 14:31:00,
2013-08-07 10:46:00,70.4,63.0,29.99,SSE,168,9.0,25.0,78,0.00,,,0.00,weatherlink.com 1.10,2013-08-07 14:46:00,
2013-08-07 11:01:00,70.1,63.0,29.99,SSW,204,13.0,24.0,79,0.00,,,0.00,weatherlink.com 1.10,2013-08-07 15:01:00,
2013-08-07 11:16:00,70.0,63.0,29.99,South,183,20.0,20.0,79,0.00,,,0.00,weatherlink.com 1.10,2013-08-07 15:16:00,
2013-08-07 11:31:00,69.9,63.0,29.99,South,174,14.0,20.0,79,0.00,,,0.00,weatherlink.com 1.10,2013-08-07 15:31:00,
2013-08-07 11:46:00,70.5,64.0,29.99,South,189,14.0,25.0,79,0.00,,,0.00,weatherlink.com 1.10,2013-08-07 15:46:00,
2013-08-07 12:01:00,71.6,64.0,29.99,South,171,14.0,22.0,77,0.00,,,0.00,weatherlink.com 1.10,2013-08-07 16:01:00,
2013-08-07 12:16:00,71.5,64.0,29.99,South,187,14.0,23.0,77,0.00,,,0.00,weatherlink.com 1.10,2013-08-07 16:16:00,
2013-08-07 12:31:00,71.8,65.0,29.98,South,187,15.0,22.0,78,0.00,,,0.00,weatherlink.com 1.10,2013-08-07 16:31:00,
2013-08-07 12:46:00,71.8,65.0,29.98,South,179,15.0,25.0,78,0.00,,,0.00,weatherlink.com 1.10,2013-08-07 16:46:00,
2013-08-07 13:01:00,71.5,64.0,29.97,South,181,10.0,22.0,78,0.00,,,0.00,weatherlink.com 1.10,2013-08-07 17:01:00,
2013-08-07 13:16:00,71.8,65.0,29.97,South,179,12.0,21.0,78,0.00,,,0.00,weatherlink.com 1.10,2013-08-07 17:16:00,
2013-08-07 13:31:00,71.5,65.0,29.97,South,178,20.0,20.0,79,0.00,,,0.00,weatherlink.com 1.10,2013-08-07 17:31:00,
2013-08-07 13:46:00,71.9,65.0,29.97,South,179,13.0,22.0,79,0.00,,,0.00,weatherlink.com 1.10,2013-08-07 17:46:00,
2013-08-07 14:01:00,72.1,65.0,29.96,South,181,13.0,19.0,79,0.00,,,0.00,weatherlink.com 1.10,2013-08-07 18:01:00,
2013-08-07 14:16:00,72.5,66.0,29.95,South,185,18.0,24.0,80,0.00,,,0.00,weatherlink.com 1.10,2013-08-07 18:16:00,
2013-08-07 14:31:00,73.2,66.0,29.95,SSW,193,15.0,27.0,79,0.00,,,0.00,weatherlink.com 1.10,2013-08-07 18:31:00,
2013-08-07 14:46:00,73.6,66.0,29.95,South,187,14.0,18.0,78,0.00,,,0.00,weatherlink.com 1.10,2013-08-07 18:46:00,
2013-08-07 15:01:00,73.3,66.0,29.95,South,170,15.0,24.0,78,0.00,,,0.00,weatherlink.com 1.10,2013-08-07 19:01:00,
2013-08-07 15:16:00,73.2,66.0,29.95,South,176,13.0,27.0,78,0.00,,,0.00,weatherlink.com 1.10,2013-08-07 19:16:00,
2013-08-07 15:31:00,73.4,66.0,29.95,South,180,24.0,25.0,78,0.00,,,0.00,weatherlink.com 1.10,2013-08-07 19:31:00,
2013-08-07 15:46:00,73.1,66.0,29.94,South,171,20.0,24.0,78,0.00,,,0.00,weatherlink.com 1.10,2013-08-07 19:46:00,
2013-08-07 16:01:00,73.3,66.0,29.93,South,172,11.0,23.0,79,0.00,,,0.00,weatherlink.com 1.10,2013-08-07 20:01:00,
2013-08-07 16:17:00,73.6,67.0,29.93,SSW,209,7.0,23.0,79,0.00,,,0.00,weatherlink.com 1.10,2013-08-07 20:17:00,
2013-08-07 16:32:00,73.5,66.0,29.93,South,177,13.0,28.0,78,0.00,,,0.00,weatherlink.com 1.10,2013-08-07 20:32:00,
2013-08-07 16:47:00,73.3,67.0,29.92,SSE,166,10.0,27.0,80,0.00,,,0.00,weatherlink.com 1.10,2013-08-07 20:47:00,
2013-08-07 17:02:00,73.0,67.0,29.93,South,175,15.0,24.0,80,0.00,,,0.00,weatherlink.com 1.10,2013-08-07 21:02:00,
2013-08-07 17:17:00,72.6,66.0,29.92,South,175,14.0,22.0,80,0.00,,,0.00,weatherlink.com 1.10,2013-08-07 21:17:00,
2013-08-07 17:32:00,72.5,66.0,29.91,South,175,13.0,23.0,81,0.00,,,0.00,weatherlink.com 1.10,2013-08-07 21:32:00,
2013-08-07 17:47:00,72.3,66.0,29.92,South,180,19.0,23.0,81,0.00,,,0.00,weatherlink.com 1.10,2013-08-07 21:47:00,
2013-08-07 18:02:00,72.1,66.0,29.91,SSE,164,10.0,24.0,81,0.00,,,0.00,weatherlink.com 1.10,2013-08-07 22:02:00,
2013-08-07 18:17:00,72.1,66.0,29.91,South,177,12.0,24.0,82,0.00,,,0.00,weatherlink.com 1.10,2013-08-07 22:17:00,
2013-08-07 18:32:00,72.4,66.0,29.91,South,172,13.0,22.0,81,0.00,,,0.00,weatherlink.com 1.10,2013-08-07 22:32:00,
2013-08-07 18:47:00,72.1,66.0,29.91,SSW,196,16.0,22.0,82,0.00,,,0.00,weatherlink.com 1.10,2013-08-07 22:47:00,
2013-08-07 19:02:00,71.9,66.0,29.91,South,179,11.0,20.0,82,0.00,,,0.00,weatherlink.com 1.10,2013-08-07 23:02:00,
2013-08-07 19:17:00,71.9,66.0,29.90,South,173,11.0,22.0,82,0.00,,,0.00,weatherlink.com 1.10,2013-08-07 23:17:00,
2013-08-07 19:32:00,71.7,66.0,29.91,SSE,160,10.0,17.0,82,0.00,,,0.00,weatherlink.com 1.10,2013-08-07 23:32:00,
2013-08-07 19:47:00,71.5,66.0,29.91,SSE,153,7.0,15.0,83,0.00,,,0.00,weatherlink.com 1.10,2013-08-07 23:47:00,
2013-08-07 20:02:00,71.4,66.0,29.90,South,179,8.0,12.0,83,0.00,,,0.00,weatherlink.com 1.10,2013-08-08 00:02:00,
2013-08-07 20:17:00,71.2,66.0,29.91,SSE,163,5.0,15.0,84,0.00,,,0.00,weatherlink.com 1.10,2013-08-08 00:17:00,
2013-08-07 20:32:00,71.2,66.0,29.91,South,187,12.0,22.0,84,0.00,,,0.00,weatherlink.com 1.10,2013-08-08 00:32:00,
2013-08-07 20:47:00,71.2,66.0,29.90,South,174,12.0,22.0,84,0.00,,,0.00,weatherlink.com 1.10,2013-08-08 00:47:00,
2013-08-07 21:02:00,71.1,66.0,29.90,South,181,10.0,21.0,84,0.00,,,0.00,weatherlink.com 1.10,2013-08-08 01:02:00,
2013-08-07 21:17:00,70.8,66.0,29.90,SSE,168,7.0,22.0,85,0.00,,,0.00,weatherlink.com 1.10,2013-08-08 01:17:00,
2013-08-07 21:32:00,70.6,66.0,29.91,South,172,7.0,21.0,85,0.00,,,0.00,weatherlink.com 1.10,2013-08-08 01:32:00,
2013-08-07 21:47:00,70.4,66.0,29.91,South,174,7.0,20.0,86,0.00,,,0.00,weatherlink.com 1.10,2013-08-08 01:47:00,
2013-08-07 22:02:00,70.2,66.0,29.91,SSE,167,4.0,18.0,86,0.00,,,0.00,weatherlink.com 1.10,2013-08-08 02:02:00,
2013-08-07 22:17:00,70.1,66.0,29.91,South,180,10.0,22.0,87,0.00,,,0.00,weatherlink.com 1.10,2013-08-08 02:17:00,
2013-08-07 22:32:00,69.9,66.0,29.90,SSE,156,5.0,18.0,87,0.00,,,0.00,weatherlink.com 1.10,2013-08-08 02:32:00,
2013-08-07 22:47:00,69.9,66.0,29.90,South,189,14.0,18.0,87,0.00,,,0.00,weatherlink.com 1.10,2013-08-08 02:47:00,
2013-08-07 23:02:00,69.9,66.0,29.91,SSE,166,5.0,20.0,88,0.00,,,0.00,weatherlink.com 1.10,2013-08-08 03:02:00,
2013-08-07 23:17:00,69.9,66.0,29.91,SSW,194,12.0,19.0,88,0.00,,,0.00,weatherlink.com 1.10,2013-08-08 03:17:00,
2013-08-07 23:32:00,69.8,66.0,29.91,SSE,168,10.0,19.0,88,0.00,,,0.00,weatherlink.com 1.10,2013-08-08 03:32:00,
2013-08-07 23:47:00,69.7,66.0,29.90,South,187,11.0,18.0,88,0.00,,,0.00,weatherlink.com 1.10,2013-08-08 03:47:00,